GFSGL_925_spd_057.txt.gz
Wind_Speed
12 9 8 9 8 9 8 9 7 7 8 8 9 9 11 11 11 11 11 12 13 15 18 19 18 14 15 12 13 12 13 16 11 11 19 16 13 11 10 10 11 11 12
14 8 6 13 15 11 11 8 7 8 7 9 10 11 10 11 14 14 13 11 12 13 15 17 18 19 18 16 16 16 13 10 23 18 16 11 13 10 10 11 11 11 11
13 15 17 15 11 10 11 10 8 8 8 9 9 11 12 9 13 14 14 17 17 17 14 16 16 17 17 15 15 16 15 18 21 21 13 14 13 11 11 11 10 11 12
17 17 12 10 13 10 9 9 9 9 9 9 10 10 9 10 12 13 12 15 19 22 20 19 18 17 15 16 16 16 17 20 22 22 18 15 12 10 8 9 7 7 8
19 15 12 13 13 12 11 10 9 8 8 7 6 11 7 6 10 12 13 11 13 16 20 22 21 19 14 13 14 15 17 21 20 19 14 13 11 11 8 9 8 8 6
16 16 15 14 18 14 12 11 10 8 7 5 8 7 3 9 10 10 10 11 11 7 13 16 18 19 19 16 13 15 11 16 19 15 11 13 12 9 10 10 9 8 3
17 16 15 19 17 14 12 12 8 6 6 5 9 5 5 9 9 9 9 8 8 10 15 10 12 12 11 14 17 14 12 9 9 12 14 12 12 10 10 8 7 8 6
19 19 17 17 16 14 12 12 10 10 6 5 8 6 5 9 10 10 9 9 8 8 9 9 10 10 10 9 14 16 14 13 12 11 11 10 9 8 5 4 4 3 3
21 21 22 20 19 17 15 13 14 14 12 12 12 9 5 8 11 9 9 10 7 5 7 7 7 10 10 11 13 16 16 16 13 12 10 9 8 6 4 3 0 4 6
22 23 23 21 20 21 18 16 16 14 14 13 11 10 8 8 12 9 5 9 8 7 6 4 7 10 10 8 9 11 11 10 12 13 13 14 13 9 5 3 7 9 7
14 21 20 21 17 17 17 18 17 15 14 13 12 12 11 9 11 10 5 4 12 10 7 6 7 8 7 6 9 8 6 5 4 4 5 8 9 6 8 7 5 7 9
14 17 20 20 18 15 17 18 20 17 14 15 15 16 14 12 11 13 8 7 14 12 10 7 8 8 7 6 7 9 6 7 6 8 12 8 13 9 3 5 5 5 5
11 12 13 13 15 15 16 17 17 19 19 18 19 20 18 16 14 15 13 11 12 11 11 9 9 8 7 6 7 7 2 3 3 14 16 12 5 4 4 2 4 6 4
4 4 7 9 11 11 12 14 17 21 21 21 22 24 23 20 18 18 17 15 14 13 12 11 12 11 6 10 8 5 3 6 10 11 9 6 5 4 6 3 2 2 8
3 4 4 4 5 7 8 9 13 13 18 20 25 28 27 26 25 19 19 19 17 16 15 16 15 11 12 13 11 8 7 8 6 5 4 2 5 7 5 3 2 4 4
2 3 4 5 8 7 6 9 11 13 15 18 20 23 28 31 19 18 17 17 17 17 19 21 18 16 17 16 15 12 13 9 8 5 6 3 3 3 1 3 5 4 4
1 3 4 5 9 8 7 9 10 11 13 14 15 16 18 26 19 20 19 20 19 18 23 21 20 20 20 20 21 21 18 17 12 9 6 6 4 3 4 6 6 9 6
0 5 7 10 10 10 8 9 10 11 11 9 11 13 16 18 20 19 20 24 23 22 25 25 22 18 19 20 24 27 20 18 14 11 10 8 9 6 7 8 7 9 12
0 4 7 9 11 14 10 9 10 11 13 13 11 13 15 16 16 17 19 25 26 25 26 27 26 23 17 21 17 19 25 21 19 16 14 13 13 12 11 9 10 9 10
2 5 7 10 8 13 12 12 13 12 13 14 17 18 18 17 18 21 24 25 23 23 24 26 28 26 20 22 19 20 21 17 16 20 17 14 15 14 12 10 7 7 9
6 6 8 9 11 15 15 16 16 18 15 18 22 23 24 25 24 25 26 26 28 27 25 22 25 24 22 23 22 22 20 16 15 19 20 20 19 17 15 11 9 10 5
6 9 10 13 17 16 19 20 19 21 22 24 23 22 23 25 24 24 24 26 28 30 29 26 24 27 31 27 25 24 21 17 21 23 28 28 25 13 7 5 5 7 9
9 12 14 14 18 20 20 22 23 23 24 25 23 25 28 29 28 26 25 24 25 23 23 24 25 25 29 27 26 25 25 24 20 17 16 13 12 9 8 9 10 12 13
12 13 15 17 14 16 23 25 27 30 25 24 21 30 32 36 29 28 28 22 30 29 18 18 18 15 14 13 25 28 25 18 15 14 12 12 11 10 10 12 14 15 17
16 12 13 13 7 5 13 12 8 6 5 2 25 29 34 27 22 14 12 4 20 35 30 27 24 22 20 17 21 20 20 20 18 16 16 14 12 11 13 16 19 21 22
15 12 13 9 2 5 8 8 4 3 7 12 13 12 10 12 10 7 3 5 8 12 10 6 1 10 11 11 12 15 19 19 16 12 10 8 9 13 16 17 17 18 13

GFSGL_925_spd_060.txt.gz
Wind_Speed
17 13 11 8 12 14 12 13 12 12 11 9 7 7 7 6 7 7 9 9 10 12 12 12 12 9 9 9 14 13 16 17 10 9 18 14 12 10 11 11 11 12 13
17 15 12 18 12 12 10 10 12 11 9 10 9 11 11 12 10 11 10 9 10 12 11 12 13 10 11 11 13 14 15 12 20 18 17 11 13 10 11 12 12 12 12
16 14 21 17 15 14 10 12 10 12 11 11 11 11 11 11 12 15 17 17 15 14 13 13 13 10 12 10 12 12 12 15 22 19 12 12 13 11 12 12 12 13 14
23 26 20 17 16 14 13 12 10 9 12 13 11 11 12 10 10 11 14 17 19 18 16 14 12 13 11 9 10 11 15 19 19 20 15 13 11 10 9 10 10 10 10
28 24 19 17 16 14 13 15 16 12 12 11 11 10 8 10 12 11 11 13 15 18 18 18 14 12 12 9 9 10 14 20 21 18 13 11 11 12 9 8 9 10 8
25 23 19 17 16 15 14 13 13 14 13 10 12 8 9 12 11 10 9 9 10 12 13 14 15 14 11 13 12 10 7 18 19 16 11 12 12 10 10 12 13 8 3
24 21 19 17 20 18 15 14 14 12 12 12 12 8 10 10 9 10 9 10 10 8 8 9 11 12 11 11 12 14 13 10 7 13 17 14 14 13 14 11 9 7 2
23 21 19 20 21 20 17 16 14 12 9 12 13 10 10 12 11 10 10 7 8 8 8 9 8 9 10 13 15 15 13 10 8 9 11 12 10 10 8 5 6 5 3
23 22 21 23 22 20 19 17 15 13 11 11 13 12 10 13 13 9 10 10 8 7 7 7 8 10 11 10 10 15 15 15 13 12 12 11 9 7 5 6 7 6 3
25 23 22 24 24 23 20 17 15 15 13 11 13 13 12 12 15 13 10 11 7 8 9 7 8 9 10 9 11 13 14 13 14 14 13 12 10 9 5 3 6 7 5
22 23 24 26 24 22 21 18 17 15 14 14 15 16 14 12 15 16 12 13 13 11 9 9 12 10 9 9 8 8 11 11 11 11 12 11 9 8 6 5 5 5 9
19 23 26 25 23 22 24 19 18 18 17 17 17 17 17 15 14 15 15 12 17 16 12 10 12 12 11 9 13 9 8 7 7 7 7 12 7 5 6 5 6 5 4
15 20 24 23 23 20 17 17 18 20 22 21 21 22 22 18 16 15 15 12 16 18 14 10 10 11 11 11 11 11 8 9 12 14 13 10 12 9 8 4 1 4 3
13 13 14 14 13 13 13 15 18 21 23 22 23 24 25 24 23 20 19 18 16 16 16 14 12 12 10 11 12 11 8 8 14 16 16 13 12 12 9 6 4 2 3
9 9 8 8 7 7 7 9 12 13 17 18 25 27 25 26 31 26 22 22 20 18 19 16 17 16 12 15 14 10 9 11 12 13 12 10 10 8 12 8 5 3 2
9 7 6 6 7 6 6 6 8 11 15 16 15 17 28 29 27 27 25 22 21 20 21 21 21 20 16 18 16 13 11 12 12 10 10 9 12 12 9 10 7 5 3
4 4 3 5 8 8 7 8 11 13 13 15 16 18 20 19 22 23 24 22 21 21 24 22 24 23 20 19 18 16 15 17 15 13 13 11 11 10 8 8 8 10 8
8 6 5 5 7 9 10 9 9 11 12 13 12 12 12 11 14 20 21 20 22 25 27 25 26 26 23 22 21 21 19 21 20 18 16 15 13 12 11 10 9 9 10
8 7 5 3 6 10 13 11 10 11 12 13 13 12 12 14 16 18 20 25 26 28 29 25 26 27 23 20 19 23 26 30 28 23 21 18 17 17 15 13 10 12 9
6 5 3 3 7 9 12 14 13 13 14 14 14 14 13 14 15 18 20 24 25 28 29 28 27 28 27 26 23 21 28 33 32 27 26 23 22 21 20 20 15 12 11
9 6 6 7 10 13 16 17 17 16 17 18 18 15 16 18 19 21 24 26 28 29 28 28 28 27 28 30 27 25 33 32 34 31 30 27 25 24 22 20 18 17 15
12 8 8 10 11 13 16 18 19 20 20 21 21 18 17 20 24 25 27 28 28 30 30 29 28 25 23 23 26 28 37 35 34 30 29 31 27 24 24 22 19 16 15
14 11 10 12 14 15 17 19 21 22 24 25 23 22 20 25 27 29 28 26 27 28 28 29 31 31 30 29 30 31 40 37 34 29 28 25 26 26 23 20 16 14 13
15 15 14 15 14 16 13 14 19 23 26 26 28 27 27 29 30 27 24 23 23 24 23 22 26 29 30 33 31 35 42 35 32 28 24 23 19 17 19 17 14 12 12
14 15 14 12 8 3 4 7 8 8 6 13 22 24 24 21 20 18 19 19 24 26 30 30 29 34 31 27 30 35 39 38 30 27 26 24 23 21 17 12 10 12 14
13 14 10 5 8 7 7 6 4 5 6 5 7 9 10 12 11 11 8 6 3 3 6 7 13 15 23 25 23 23 30 28 27 25 19 22 20 13 6 9 10 12 14

GFSGL_925_spd_063.txt.gz
Wind_Speed
17 13 12 13 17 16 13 13 16 16 14 12 9 6 6 4 3 2 3 4 6 7 8 9 8 6 7 9 13 16 15 16 9 7 16 13 12 12 13 13 13 14 15
19 15 13 18 17 16 15 13 14 11 10 11 9 10 10 9 6 5 4 5 7 9 9 12 12 10 11 11 12 12 16 9 17 15 15 9 13 12 13 14 14 13 14
21 18 17 18 16 15 14 15 13 13 12 11 11 11 10 10 10 11 11 10 10 11 11 13 11 10 12 10 10 12 11 11 19 19 12 13 14 12 15 15 14 14 15
20 17 21 18 18 14 13 12 12 10 13 13 11 10 9 8 8 10 12 12 12 12 12 12 12 11 10 8 9 11 12 15 18 23 17 16 13 12 13 16 16 14 14
17 23 20 15 16 14 14 13 9 8 10 11 12 11 10 10 9 7 9 10 12 13 13 12 11 11 10 8 7 11 15 18 20 20 15 13 12 14 12 12 11 12 11
24 22 18 17 16 14 15 15 14 12 11 11 11 9 10 12 10 7 6 7 8 9 11 11 10 10 11 10 9 8 7 18 17 12 9 11 14 12 12 15 16 10 4
26 24 22 20 19 17 16 15 14 14 13 14 14 11 13 13 10 8 7 6 5 5 5 7 8 9 9 11 12 12 10 6 8 14 17 15 15 14 16 15 13 7 4
28 26 24 23 21 19 18 17 15 14 14 15 13 10 12 12 11 10 7 6 6 7 4 5 5 7 9 10 11 12 12 11 8 7 10 11 9 13 13 9 9 6 5
29 28 26 23 23 22 21 19 17 15 13 14 16 13 13 12 12 12 11 8 7 7 6 5 5 7 9 8 9 13 13 12 10 10 11 11 10 9 8 9 11 9 3
30 29 25 24 26 25 23 21 19 17 16 15 16 15 14 15 15 14 14 12 9 7 7 7 7 7 8 7 9 13 15 14 14 15 14 12 10 9 8 9 10 11 6
28 25 25 24 27 27 25 22 20 17 17 17 17 17 16 15 17 16 15 15 13 11 9 9 10 10 9 8 7 8 12 15 14 14 14 13 10 8 7 6 7 8 9
25 26 27 27 28 26 26 21 20 18 18 19 18 17 18 17 16 18 17 15 16 15 12 10 12 13 12 11 10 9 12 13 13 13 13 11 9 6 7 6 6 4 4
21 26 30 28 26 25 17 17 17 16 17 19 19 21 21 21 19 19 19 18 18 20 17 13 12 15 14 13 13 14 13 14 15 15 15 15 13 10 8 7 6 5 7
17 18 20 17 15 11 10 12 15 18 21 22 23 23 24 22 23 22 22 19 18 19 20 16 15 15 15 15 16 16 15 15 19 20 20 16 13 15 12 9 7 7 9
8 7 7 9 10 8 7 9 11 12 14 17 20 23 22 24 31 28 26 24 23 22 21 20 19 18 17 15 16 17 15 12 13 16 18 17 17 17 15 11 8 7 6
6 4 4 4 3 3 2 4 6 6 8 12 15 16 19 23 26 25 24 28 24 23 22 25 25 23 22 19 20 19 16 17 16 17 17 18 18 17 17 14 11 9 8
6 5 3 4 3 4 6 8 11 9 10 13 14 14 17 19 17 21 21 22 28 24 24 28 28 26 26 23 23 23 19 18 16 17 17 17 17 17 16 15 15 12 11
3 4 4 4 6 7 10 13 13 11 10 12 12 12 12 12 14 16 16 23 25 26 30 27 28 26 28 26 24 25 22 18 19 20 20 20 18 19 18 16 15 14 15
4 4 6 7 8 8 11 13 14 14 12 13 12 12 11 11 10 9 13 24 25 27 30 28 27 27 27 28 25 25 24 22 23 24 25 24 23 22 20 17 17 15 15
10 7 8 8 8 10 14 14 16 17 14 14 12 12 12 10 10 12 17 21 22 25 28 29 28 28 26 27 27 26 26 24 29 34 33 30 28 27 25 23 20 19 17
14 12 12 13 13 14 14 16 18 17 15 16 16 13 11 13 14 15 17 21 25 28 29 29 29 29 28 26 28 30 28 29 26 29 36 37 33 30 28 27 26 25 22
20 17 14 14 14 13 14 17 18 18 19 21 21 17 15 15 17 18 19 22 24 26 27 28 29 29 28 29 29 30 31 33 31 31 35 40 37 36 34 33 29 28 28
21 19 18 16 14 14 16 17 18 20 23 24 23 21 18 19 21 22 21 22 21 21 21 23 25 27 28 28 28 28 29 32 32 34 37 42 41 40 38 33 30 32 29
15 18 18 17 12 12 14 14 13 14 14 16 19 20 22 22 23 25 22 20 19 18 18 18 20 23 24 26 30 32 33 33 36 32 39 43 43 40 38 37 34 29 20
12 16 15 13 13 10 6 5 4 7 8 9 10 12 15 16 15 15 16 14 14 16 17 20 22 25 25 26 27 30 31 34 39 41 40 41 44 39 37 30 26 24 22
11 9 10 9 7 5 1 2 5 8 11 12 13 14 13 10 8 7 5 5 5 6 7 7 10 12 13 19 24 27 33 29 25 31 32 33 31 27 23 16 12 9 14

GFSGL_925_spd_069.txt.gz
Wind_Speed
17 14 11 8 7 9 7 5 7 7 8 7 5 3 2 1 1 1 1 1 2 2 2 3 2 1 4 7 7 8 8 11 9 7 17 15 16 16 16 17 18 19 18
16 13 9 8 10 9 8 8 7 9 6 5 5 4 4 2 1 1 1 1 2 3 4 4 4 3 4 5 7 8 11 9 18 17 17 12 16 15 17 19 19 17 16
15 13 14 13 12 9 9 9 10 8 8 7 5 6 6 6 6 5 4 4 4 4 5 4 4 4 5 6 7 9 11 11 18 19 13 17 17 18 19 16 16 16 13
10 9 11 13 13 11 11 10 8 8 8 7 7 5 5 7 7 7 5 4 5 4 5 6 6 5 4 5 7 8 8 10 12 17 16 15 17 18 19 20 16 12 13
11 12 12 11 10 11 12 11 10 9 7 7 6 5 3 2 4 5 6 6 5 5 5 6 7 6 5 4 5 7 9 10 14 16 14 14 15 19 18 12 13 13 11
15 14 13 12 12 13 14 13 10 9 9 9 7 4 4 3 2 2 4 3 4 4 5 5 6 7 5 4 5 8 8 11 13 13 12 15 16 16 14 16 15 15 11
16 14 14 13 14 14 13 12 11 8 9 9 9 7 3 4 5 4 3 2 1 1 2 3 4 5 6 5 6 7 7 9 10 11 13 16 16 20 21 18 16 14 7
17 14 15 15 15 14 14 13 14 12 10 10 10 10 8 8 9 8 7 5 5 4 2 1 3 4 4 5 6 5 5 6 8 7 9 14 14 22 24 19 17 12 7
14 17 19 17 17 15 14 12 11 11 11 10 9 10 10 9 10 10 7 7 5 4 3 3 2 3 5 6 6 6 6 5 6 8 10 11 13 17 17 15 17 13 7
27 24 20 18 17 15 13 10 10 11 11 10 10 11 12 10 12 14 13 12 8 7 6 6 6 6 7 6 5 7 8 8 8 9 10 10 12 16 18 15 16 16 13
29 25 24 21 18 17 13 12 13 13 11 11 11 10 11 13 13 15 15 13 11 9 8 8 9 10 10 9 8 7 6 10 12 9 9 9 10 12 12 13 10 13 12
23 26 25 23 17 15 13 13 16 13 14 13 12 10 12 12 16 17 19 19 15 13 12 10 10 10 12 11 10 10 9 12 11 11 11 10 10 10 10 10 12 12 11
20 22 21 19 16 17 16 18 17 14 15 14 13 12 15 13 14 20 20 21 21 21 20 17 13 12 14 15 14 12 13 13 13 13 13 12 12 10 10 10 10 10 11
16 16 24 23 16 16 18 23 16 15 16 16 15 15 13 12 13 15 20 22 23 24 24 21 17 15 18 18 18 19 16 16 16 15 14 13 12 12 13 12 11 10 9
15 13 13 16 18 19 23 20 18 17 17 13 16 16 14 12 12 14 17 24 25 26 26 22 20 18 20 19 20 15 17 18 19 18 17 16 16 16 16 15 14 13 13
14 11 8 7 8 13 15 10 11 11 8 6 4 5 8 11 12 15 14 16 17 22 22 23 25 26 23 26 23 20 19 22 22 20 19 19 19 19 18 17 17 16 16
12 18 16 12 5 6 7 8 9 8 7 6 4 3 8 11 12 13 13 14 15 22 22 21 25 24 27 24 26 28 24 25 22 22 19 18 18 19 19 18 18 17 17
12 14 17 4 3 4 4 5 5 6 5 6 5 5 8 11 12 14 12 10 10 12 20 17 21 23 23 25 27 27 23 22 20 20 20 20 18 19 18 19 20 21 21
12 12 10 5 3 3 3 3 3 3 4 7 4 6 5 9 11 11 10 7 8 11 15 19 18 18 22 25 26 26 26 24 26 23 24 22 21 21 21 22 22 23 23
10 10 8 5 3 2 3 4 5 5 7 6 5 5 5 8 8 5 5 6 8 11 13 13 15 17 21 22 23 24 26 24 21 24 22 18 20 22 24 23 23 22 23
3 5 5 5 4 4 5 5 5 5 4 4 4 6 11 13 11 7 6 6 7 7 9 13 15 16 16 17 18 20 24 27 27 26 27 28 25 26 26 25 26 25 25
3 6 7 8 7 7 6 6 6 4 2 4 5 6 8 3 5 5 5 5 5 6 6 6 7 8 9 12 13 17 20 22 25 25 26 26 28 33 29 28 29 29 29
4 6 7 10 10 8 8 6 3 1 2 4 5 6 7 7 6 7 8 7 7 7 6 7 7 8 8 9 9 10 11 14 17 19 26 32 32 34 31 29 28 31 33
7 6 8 9 11 8 5 4 6 7 6 7 9 10 12 12 12 12 11 10 8 7 6 6 7 8 9 10 11 12 15 15 14 16 19 24 28 29 29 27 26 29 30
7 6 6 4 7 9 9 8 8 8 9 11 11 12 11 12 13 13 12 11 11 10 10 9 9 10 11 12 12 14 14 15 15 17 22 21 21 23 25 25 28 26 28
2 3 5 7 10 12 12 12 13 13 13 12 12 12 11 12 12 11 10 10 9 8 8 10 10 11 14 13 13 14 16 20 21 20 17 20 24 26 27 27 28 29 29

GFSGL_925_spd_072.txt.gz
Wind_Speed
7 7 7 7 7 6 7 8 10 12 12 10 8 5 4 4 4 4 3 2 3 4 4 4 4 5 6 6 6 7 8 8 9 5 14 14 15 16 15 13 13 16 15
8 7 7 8 10 9 9 9 9 10 10 11 7 6 4 2 2 3 3 1 1 3 5 5 5 3 3 1 4 8 9 9 11 16 15 12 14 13 14 14 11 10 12
13 11 11 11 11 9 8 8 9 10 10 8 8 6 5 4 4 3 3 3 3 4 4 4 5 5 3 2 5 8 9 9 17 16 12 16 15 16 16 13 11 11 9
14 12 13 14 12 10 9 9 8 8 8 8 7 7 7 5 4 4 4 3 3 4 4 4 4 4 3 3 5 7 9 11 12 16 12 14 15 15 15 16 11 10 11
17 15 14 14 12 10 10 10 9 8 8 7 6 5 6 7 6 6 4 4 3 3 3 3 3 3 2 4 2 5 9 10 13 15 13 13 13 17 17 13 12 13 11
22 19 17 16 15 13 11 11 9 8 8 9 10 6 5 5 7 9 8 4 3 2 2 2 2 5 3 3 6 9 8 8 12 13 14 15 15 15 17 17 16 15 12
21 22 20 19 16 14 13 12 9 7 10 11 10 9 6 5 7 6 6 4 4 3 1 0 1 1 3 2 3 5 7 11 10 11 13 17 17 21 20 18 17 16 8
20 20 20 20 18 15 13 12 9 11 12 12 10 8 7 7 9 8 6 5 5 5 3 2 2 2 2 3 3 3 4 5 8 8 10 14 15 20 20 20 18 14 5
22 22 24 23 20 18 16 15 12 13 12 12 10 10 9 8 10 11 9 8 6 5 5 5 4 4 5 5 2 2 3 4 8 10 8 12 15 17 21 17 17 15 10
20 19 21 24 24 21 19 17 16 14 13 12 9 9 10 10 12 13 14 10 8 8 7 6 8 6 7 6 3 4 4 3 3 4 7 9 11 14 19 18 17 17 14
17 18 22 21 20 20 19 18 17 16 14 13 10 10 11 12 12 15 18 14 13 11 10 9 8 9 9 9 7 4 4 4 5 5 5 7 10 12 15 17 16 17 16
15 19 22 22 22 21 19 18 17 18 17 14 13 13 14 13 15 16 19 21 16 13 12 8 5 9 10 10 9 10 10 8 8 9 9 9 10 11 13 15 14 13 13
15 18 21 21 20 19 21 21 19 17 17 15 14 15 15 12 13 15 19 21 22 22 15 12 13 11 10 12 13 12 10 10 11 12 12 12 13 13 13 13 13 12 12
15 17 18 19 19 18 18 19 18 16 16 15 15 13 12 8 10 11 12 17 21 22 23 19 16 16 15 15 14 16 15 14 14 14 13 13 13 14 15 15 14 13 14
17 16 17 19 18 15 17 16 15 14 15 13 11 8 6 7 8 9 10 10 13 17 20 15 13 15 16 16 18 17 20 19 22 20 18 16 16 17 18 18 17 16 16
16 16 16 14 11 9 9 6 9 11 11 11 10 6 3 6 9 10 12 14 16 16 15 17 16 17 19 20 21 24 24 24 24 20 20 19 20 20 20 20 19 20 19
8 12 14 16 16 12 8 5 6 6 4 3 4 4 4 7 8 10 12 11 13 16 15 17 18 19 23 24 26 23 23 26 22 21 24 22 18 21 21 22 22 21 22
9 10 12 14 14 14 13 6 5 11 9 9 8 6 5 6 9 10 10 9 8 11 14 17 17 17 18 20 22 28 22 22 25 23 20 17 18 20 23 24 25 23 24
9 8 9 11 10 12 8 7 5 2 4 5 5 7 8 7 7 10 12 8 9 7 7 9 12 14 16 17 18 20 22 23 25 23 25 26 19 20 27 24 23 24 22
10 10 9 8 6 5 6 4 4 4 5 5 5 3 8 4 7 9 6 4 5 5 7 7 6 10 13 15 15 15 17 17 22 23 25 22 22 23 20 16 16 18 23
1 6 6 7 8 7 6 5 5 7 8 6 3 3 2 8 11 6 5 5 7 6 4 6 5 6 8 9 10 10 11 13 16 18 21 26 29 26 24 26 27 25 30
7 7 6 5 5 5 6 5 6 8 3 4 3 6 7 5 5 5 5 5 5 6 8 5 4 4 5 5 5 6 7 9 10 14 17 21 23 28 28 27 26 29 30
8 6 6 6 8 6 5 7 1 1 2 2 2 5 6 5 6 6 6 6 6 6 6 5 5 6 7 7 5 5 8 8 9 10 12 14 18 22 25 30 31 30 30
11 10 11 8 9 9 6 5 4 5 5 5 6 7 7 8 9 9 8 8 8 8 7 7 7 8 7 7 7 8 11 12 11 12 15 14 18 18 24 27 28 31 30
12 11 10 8 6 5 4 5 9 9 10 8 8 8 8 8 8 8 8 7 7 6 6 6 7 9 10 10 9 9 10 10 9 12 12 11 14 18 19 17 17 18 24
3 1 1 1 6 10 10 14 13 12 12 11 8 9 10 11 9 9 8 8 7 7 6 6 6 8 8 8 11 10 10 13 15 15 13 10 11 12 13 15 17 21 24